North Platte, NE

5:24 PM CDT on April 21, 2018 (GMT -0500)
North Platte Regional-Bird

Weather History for KLBF - March, 2014

Change the Weather History Date:

Saturday, March 8, 2014

  Actual Average Record
Temperature  
Mean Temperature 36 °F 36 °F  
Max Temperature 54 °F 50 °F 76 °F (1911)
Min Temperature 17 °F 21 °F -6 °F (1996)
Degree Days  
Heating Degree Days 29 29  
Month to date heating degree days 309 244  
Since 1 July heating degree days 5500 5272  
Cooling Degree Days 0 0  
Month to date cooling degree days 0 0  
Year to date cooling degree days 0 0  
Moisture  
Dew Point 25 °F    
Average Humidity 69    
Maximum Humidity 92    
Minimum Humidity 45    
Precipitation  
Precipitation 0.00 in 0.03 in 0.89 in (1893)
Month to date precipitation 0.04 0.22  
Year to date precipitation 1.09 1.06  
Snow  
Snow 0.00 in 0.20 in 1.20 in (2002)
Month to date snowfall 0.6 1.3  
Since 1 July snowfall 23.0 22.2  
Snow Depth 0.00 in    
Sea Level Pressure  
Sea Level Pressure 30.30 in    
Wind  
Wind Speed 4 mph (West)    
Max Wind Speed 10 mph    
Max Gust Speed 14 mph    
Visibility 10 miles    
Events      
T = Trace of Precipitation, MM = Missing Value Source: NWS Daily Summary

Daily Weather History Graph

Daily Weather History Graph

Search for Another Location

Airport or City:

Astronomy

Mar. 08, 2014 Rise Set
Actual Time 7:05 AM CST 6:41 PM CST
Civil Twilight 6:38 AM CST 7:09 PM CST
Nautical Twilight 6:06 AM CST 7:41 PM CST
Astronomical Twilight 5:34 AM CST 8:13 PM CST
Moon 11:45 AM CST (3/8) 1:44 AM CST (3/8)
Length of Visible Light 12h 30m
Length of Day
11h 35m
First Quarter, 52% of the Moon is Illuminated
Mar 8
First Quarter
Mar 16
Full
Mar 23
Last Quarter
Mar 30
New
Apr 7
First Quarter

Hourly Weather History & Observations

Time (CST) Temp. Windchill Dew Point Humidity Pressure Visibility Wind Dir Wind Speed Gust Speed Precip Events Conditions
12:53 AM 24.1 °F 18.2 °F 17.1 °F 75% 30.30 in 10.0 mi NNW 4.6 mph - N/A   Clear
1:53 AM 21.0 °F - 17.1 °F 85% 30.32 in 10.0 mi Calm Calm - N/A   Clear
2:53 AM 19.0 °F 12.3 °F 16.0 °F 88% 30.32 in 10.0 mi NW 4.6 mph - N/A   Clear
3:53 AM 19.0 °F - 16.0 °F 88% 30.32 in 10.0 mi Calm Calm - N/A   Partly Cloudy
4:53 AM 18.0 °F - 15.1 °F 88% 30.33 in 10.0 mi Calm Calm - N/A   Clear
5:53 AM 18.0 °F - 15.1 °F 88% 30.34 in 10.0 mi Calm Calm - N/A   Clear
6:18 AM 19.4 °F - 15.8 °F 86% 30.25 in 10.0 mi Calm Calm - N/A   Mostly Cloudy
6:53 AM 21.0 °F - 17.1 °F 85% 30.35 in 10.0 mi Calm Calm - N/A   Overcast
7:39 AM 24.8 °F 17.9 °F 21.2 °F 86% 30.25 in 10.0 mi WNW 5.8 mph - N/A   Overcast
7:53 AM 25.0 °F 19.3 °F 21.9 °F 88% 30.35 in 10.0 mi West 4.6 mph - N/A   Overcast
8:53 AM 28.0 °F 19.3 °F 24.1 °F 85% 30.36 in 10.0 mi WNW 9.2 mph - N/A   Overcast
9:53 AM 30.0 °F 23.2 °F 26.1 °F 85% 30.39 in 10.0 mi WNW 6.9 mph - N/A   Overcast
10:53 AM 32.0 °F 27.5 °F 27.0 °F 82% 30.38 in 10.0 mi West 4.6 mph - N/A   Overcast
11:53 AM 36.0 °F 33.3 °F 30.0 °F 79% 30.36 in 10.0 mi SSW 3.5 mph - N/A   Overcast
12:27 PM 39.2 °F 35.0 °F 30.2 °F 70% 30.28 in 10.0 mi West 5.8 mph - N/A   Scattered Clouds
12:53 PM 39.9 °F 34.5 °F 32.0 °F 73% 30.34 in 10.0 mi SW 8.1 mph - N/A   Clear
1:53 PM 46.0 °F 44.8 °F 32.0 °F 58% 30.30 in 10.0 mi Variable 3.5 mph - N/A   Clear
2:53 PM 51.1 °F - 33.1 °F 50% 30.27 in 10.0 mi WSW 5.8 mph - N/A   Clear
3:53 PM 54.0 °F - 32.0 °F 43% 30.26 in 10.0 mi West 6.9 mph - N/A   Clear
4:53 PM 54.0 °F - 32.0 °F 43% 30.26 in 10.0 mi SW 6.9 mph - N/A   Clear
5:53 PM 52.0 °F - 33.1 °F 49% 30.25 in 10.0 mi SSW 5.8 mph - N/A   Clear
6:53 PM 45.0 °F 41.8 °F 30.9 °F 58% 30.27 in 10.0 mi SSW 5.8 mph - N/A   Clear
7:53 PM 35.1 °F - 28.0 °F 76% 30.28 in 10.0 mi Calm Calm - N/A   Clear
8:53 PM 37.9 °F 35.5 °F 28.9 °F 70% 30.27 in 10.0 mi SSW 3.5 mph - N/A   Clear
9:53 PM 30.0 °F - 26.1 °F 85% 30.27 in 10.0 mi Calm Calm - N/A   Clear
10:53 PM 32.0 °F - 26.1 °F 79% 30.26 in 10.0 mi Calm Calm - N/A   Clear
11:53 PM 32.0 °F - 27.0 °F 82% 30.25 in 10.0 mi Calm Calm - N/A   Clear